{"data":{"norad_id":35496,"intl_designator":"2009-035A","name":"TERRESTAR-1","alt_names":[],"object_type":"PAYLOAD","status":"ACTIVE","operator":null,"country":"US","launch_date":"2009-07-01","launch_site_code":"FRGUI","launch_vehicle":null,"mission":null,"orbit_class":"UNKNOWN","rcs_meters":17.2973,"size_class":null,"mass_kg":null,"dimensions":null,"purposes":["comms"],"wikipedia_slug":null,"has_3d_model":false,"image_url":null,"decayed_at":null,"tle_current":{"epoch":"2026-05-24T20:22:19.005312Z","epoch_age_seconds":91613,"freshness":"FRESH","line1":"1 35496U 09035A   26144.84883108 -.00000060  00000+0  00000+0 0  9996","line2":"2 35496   5.1710  48.8040 0002789  12.0352  16.1717  1.00272655 61903","mean_motion":1.00272655,"eccentricity":0.0002789,"inclination_deg":5.171,"raan_deg":48.804,"arg_perigee_deg":12.0352,"mean_anomaly_deg":16.1717,"bstar":0,"rev_number":6190,"period_min":1436.0844439593,"perigee_km":35774.591394649,"apogee_km":35798.110746095,"semimajor_km":42164.488070372,"source":"CELESTRAK","updated_at":"2026-05-25T13:38:13.865020Z"}}}